Temp_Advection
nan nan nan nan nan nan nan nan nan nan nan nan nan nan nan nan nan nan nan nan nan nan
nan -0 -0 -0 -0 -0 -0 -0 -0 0 0 0 0 0 0 -0 0 0 0 -0 -0 nan
nan -0 -0 -0 -0 -0 -0 -0 -0 -0 0 0 0 0 0 1 0 0 -0 -1 -0 nan
nan -0 -0 -0 -0 -0 -0 -0 -0 -0 -0 -0 0 1 1 1 0 -0 -0 -0 -0 nan
nan -0 -0 -0 -0 -0 -0 -0 -0 -1 -1 -1 -0 1 1 -0 -0 -0 -0 -0 -0 nan
nan -0 -0 -0 -0 0 -0 -0 -0 -0 -0 -0 -1 -1 -0 -0 -0 -0 -0 -0 -0 nan
nan -0 -0 -0 -0 -0 -0 -0 0 -0 -0 0 0 -0 -0 -0 -0 -0 -0 0 0 nan
nan -0 -0 -0 -0 0 -0 -0 -0 -0 -0 -0 -0 -0 -0 -0 -0 -0 -0 0 0 nan
nan -0 -0 -0 -0 0 -0 -0 -0 -0 -0 -0 -1 -0 -0 -0 -0 -0 -0 -0 -0 nan
nan -0 -0 -0 0 0 -0 0 0 -0 -0 -0 -1 -0 -0 -0 -0 -0 -0 -0 -0 nan
nan 0 0 0 0 0 0 0 -0 -0 -0 -0 -0 -0 -0 -0 -0 -0 -0 -0 -0 nan
nan -0 0 0 0 0 -0 -0 -0 -0 -0 0 0 -0 -0 -0 -0 -0 -0 -0 -0 nan
nan 0 -0 -0 -0 -0 0 -0 -0 -0 0 -0 -0 -0 -0 -0 -0 -0 -0 -0 -0 nan
nan nan nan nan nan nan nan nan nan nan nan nan nan nan nan nan nan nan nan nan nan nan
Wind_Speed
15 16 15 16 16 16 16 17 22 25 24 25 24 24 24 28 27 27 31 36 39 41
12 14 15 16 16 16 18 18 19 21 25 28 27 26 22 20 26 25 25 30 33 34
6 8 10 13 14 16 16 17 18 19 21 22 22 22 24 25 25 25 24 25 26 28
7 9 10 12 13 16 17 17 17 18 18 18 19 21 25 26 22 22 22 23 23 25
10 10 11 11 11 11 12 14 16 16 16 17 18 18 18 19 17 18 17 17 19 20
9 10 10 9 9 7 8 11 11 11 12 11 10 10 11 10 10 11 13 14 14 14
9 9 8 7 5 2 5 6 6 6 7 8 10 12 10 10 9 10 11 12 13 12
8 8 7 5 3 1 3 5 6 6 7 8 8 7 6 7 6 5 5 5 5 5
6 4 2 3 3 6 7 8 8 9 10 9 12 15 12 10 8 6 4 4 3 2
1 3 5 8 9 10 10 11 11 11 11 12 15 14 13 12 9 8 6 5 3 2
6 9 11 12 12 12 11 11 12 13 13 13 14 12 11 9 7 6 5 5 4 4
10 12 13 15 14 13 11 11 11 11 11 10 11 10 9 8 6 6 6 6 7 7
13 14 14 14 12 11 10 10 9 8 8 8 9 9 9 9 8 8 8 8 8 9
13 12 11 11 10 9 7 7 6 6 7 7 7 8 8 8 10 11 12 12 12 12
Wind_Direction
261 259 264 270 269 270 272 271 258 254 255 261 268 277 285 278 285 279 273 268 273 277
259 263 265 265 268 268 267 266 264 263 262 266 270 271 271 273 279 281 278 273 276 280
276 276 277 277 276 274 273 272 272 271 268 267 268 269 269 265 275 278 277 272 273 275
289 285 284 284 286 287 285 283 280 277 275 274 270 266 268 278 281 279 277 275 272 273
288 289 293 296 297 298 299 295 293 291 288 286 282 283 289 289 288 285 279 277 272 270
289 298 303 308 299 291 317 318 318 312 306 312 319 309 297 295 291 287 279 273 268 264
295 304 307 306 305 307 356 349 341 336 341 334 325 324 311 300 290 278 270 265 262 264
305 311 307 311 352 78 48 17 13 16 20 8 354 8 346 327 312 288 272 263 255 263
310 329 1 75 76 71 67 73 64 58 55 60 65 61 58 55 45 43 51 55 34 18
6 98 105 104 101 96 90 82 73 74 72 73 72 66 67 67 60 58 60 54 49 12
117 117 114 113 108 97 88 84 82 76 69 64 67 59 53 53 41 31 30 23 0 345
127 124 123 116 106 99 93 87 80 77 69 58 56 46 30 24 17 6 1 353 339 330
133 126 120 113 108 101 92 82 77 73 57 41 30 15 6 1 350 344 340 334 323 317
130 125 121 117 113 102 93 83 68 46 33 21 13 3 354 347 342 342 336 332 329 326
Height
1497 1497 1497 1496 1496 1496 1496 1495 1495 1495 1494 1494 1495 1496 1497 1497 1494 1493 1492 1492 1492 1491
1494 1494 1494 1493 1492 1492 1491 1491 1490 1490 1489 1489 1489 1488 1488 1490 1489 1487 1486 1485 1485 1484
1491 1491 1490 1490 1489 1488 1487 1486 1486 1485 1484 1483 1483 1483 1482 1483 1482 1481 1480 1479 1480 1478
1489 1489 1488 1487 1485 1484 1483 1483 1481 1480 1479 1477 1477 1476 1476 1476 1476 1475 1474 1473 1473 1473
1487 1486 1484 1482 1481 1480 1480 1477 1476 1475 1473 1472 1471 1470 1470 1471 1471 1470 1469 1469 1468 1468
1485 1483 1480 1478 1477 1477 1477 1474 1472 1471 1469 1469 1468 1467 1468 1468 1468 1467 1466 1465 1465 1465
1481 1479 1477 1476 1476 1475 1476 1474 1472 1471 1469 1468 1466 1466 1465 1465 1465 1464 1463 1462 1462 1462
1478 1476 1475 1474 1474 1474 1473 1472 1471 1469 1466 1466 1465 1464 1463 1463 1463 1461 1461 1460 1460 1460
1475 1473 1473 1473 1474 1474 1473 1472 1470 1468 1467 1467 1466 1465 1464 1464 1463 1463 1462 1462 1461 1461
1473 1472 1473 1473 1474 1474 1473 1473 1471 1470 1470 1470 1468 1467 1467 1466 1465 1465 1464 1463 1462 1462
1472 1473 1474 1475 1476 1475 1475 1474 1474 1473 1473 1472 1471 1470 1470 1468 1468 1467 1465 1464 1463 1462
1475 1474 1476 1476 1477 1477 1477 1476 1476 1476 1476 1475 1473 1472 1472 1470 1469 1467 1465 1463 1462 1461
1477 1477 1478 1478 1478 1479 1479 1478 1478 1478 1478 1476 1474 1473 1472 1470 1468 1466 1464 1463 1462 1461
1478 1479 1479 1480 1480 1480 1480 1480 1480 1480 1478 1477 1475 1473 1472 1470 1467 1464 1462 1460 1459 1458